PulseSat

PulseSat

MOLNIYA 1-40

Last updated on Jan. 24, 2019, 3:01 a.m. UTC

1 10925U 78055A   19023.55586326  .00000046  00000-0 -21431-1 0  9990
2 10925  62.4397 210.9703 7101527 276.8695  13.8887  2.00723083297826
UTC
Height (km)
Latitude
Longitude
Inclination
Orbital Period

Next 30 passes for location: Hong Kong

Rise time Rise Azimuth (degrees) Set time Set Azimuth (degrees) Duration Max altitude (degrees)

No matching passes for this satellites

PulseSat

PulseSat is the new satellites software and hardware trackering solution by Pulsely.
Satellite Two Line Element Set source: US Air Force Space Command

Download PulseSat for iOS
© 2017 Pulsely Limited